Location: Kawakawa
(35.3830°S, 174.0670°E)
Time: 09:05:13
(UTC+13:00)

Altair - Pass Details

Date: 10 December 2019
Orbit: 1502 x 1682 km, 47.2° (Epoch: 22 January)

Event Time Altitude Azimuth Distance (km) Brightness Sun altitude
Rises 17:30:51 0° 237° (WSW) 4,945 11.0 34.0°
Reaches altitude 10° 17:34:04 10° 240° (WSW) 3,961 10.8 33.3°
Maximum altitude 17:44:03 62° 316° (NW) 1,862 8.8 31.3°
Drops below altitude 10° 17:53:53 10° 34° (NE) 3,892 9.3 29.3°
Sets 17:57:01 0° 37° (NE) 4,855 9.7 28.7°
